GFSFLT2_prec_cloud_114.txt.gz
Cloud_Cover
0 0 0 0 0 0 0 10 17 92 5 42 0 0 0 0 76 95 97 100 36 8 70 7 34 38 100 100 80 67 100 91
0 0 0 3 0 7 0 0 8 0 0 100 0 1 0 0 0 66 100 100 99 9 1 5 5 100 100 100 100 37 100 100
0 0 2 5 2 3 39 16 1 9 15 34 74 0 0 0 0 1 0 3 5 4 2 5 5 35 100 100 100 63 100 100
0 0 0 0 0 3 0 0 3 14 1 0 0 0 0 0 0 0 1 2 5 5 5 6 2 7 45 100 100 99 100 56
0 0 4 3 0 0 1 5 0 0 0 0 0 0 0 0 0 6 81 100 100 27 70 7 0 0 22 100 100 100 100 100
5 5 40 24 5 1 5 6 2 0 0 0 0 0 0 0 0 0 9 4 5 1 0 0 0 3 17 99 100 100 100 100
24 18 100 100 5 2 7 5 3 0 0 0 0 0 0 0 0 0 0 0 0 0 3 0 75 30 96 16 100 100 100 100
93 95 100 100 30 4 6 5 5 0 0 0 0 0 0 0 0 2 0 1 4 5 5 4 91 37 96 65 98 100 100 100
5 100 100 80 5 5 33 27 5 5 2 2 5 0 0 0 0 0 0 0 8 5 7 5 28 98 24 98 100 100 100 100
28 61 100 33 5 52 5 5 5 5 95 100 79 2 0 0 0 0 0 0 4 2 4 5 48 100 62 100 100 100 100 100
100 100 100 58 8 91 5 24 21 3 5 66 5 97 16 50 1 1 0 0 1 13 38 1 56 100 99 98 100 100 100 100
100 100 85 29 43 39 6 6 8 0 5 23 24 96 75 41 80 0 0 20 49 96 90 58 100 100 100 98 100 100 100 100
100 100 55 28 72 14 17 5 27 0 2 14 61 88 100 89 100 1 25 54 92 58 99 100 100 100 100 100 100 100 100 100
100 65 88 90 90 39 15 32 24 14 3 36 5 5 17 99 50 0 28 100 98 100 100 100 100 100 100 100 100 100 100 100
9 94 17 21 69 98 46 51 14 54 54 31 100 81 71 100 5 42 30 100 100 98 100 83 100 100 100 100 100 100 100 100
100 72 90 66 99 78 100 96 80 67 19 78 86 100 100 100 89 64 98 64 100 100 100 82 90 100 100 100 100 100 100 100
100 97 21 63 60 68 99 100 67 99 35 96 100 100 100 100 100 97 100 100 73 74 100 98 100 100 100 100 100 100 100 100
93 37 65 48 43 74 98 100 100 98 44 40 100 100 100 100 100 100 100 100 100 100 70 92 100 100 100 100 100 100 100 100
38 100 100 80 56 64 50 98 100 100 100 16 100 100 100 100 99 100 99 100 100 100 100 99 98 100 100 100 100 100 100 100
90 100 100 64 31 18 20 100 100 100 96 85 99 100 100 100 100 84 98 100 100 100 100 100 100 100 100 100 100 100 100 100

GFSFLT2_prec_cloud_117.txt.gz
Cloud_Cover
25 6 0 0 0 12 16 17 10 0 0 0 0 0 0 0 0 0 0 1 18 99 100 99 5 20 89 98 100 100 37 7
24 22 21 21 16 10 22 22 12 0 1 44 2 0 0 0 0 0 0 1 14 98 100 96 6 5 12 85 100 16 29 25
2 23 12 15 19 8 12 20 12 0 3 98 71 18 0 0 0 0 0 0 1 0 4 5 5 5 5 68 92 44 65 67
0 5 3 4 1 17 30 45 99 100 38 26 33 19 4 0 0 0 0 0 0 4 4 4 8 10 5 13 68 49 91 100
11 100 100 5 5 16 28 34 52 48 23 28 10 8 3 0 1 1 1 0 0 20 25 39 6 12 9 6 5 5 96 98
5 9 5 72 100 96 20 11 89 70 5 8 15 24 1 0 0 1 2 0 12 27 39 15 6 10 10 6 3 9 100 100
76 99 77 100 100 100 80 5 51 95 5 5 5 4 2 0 1 0 0 0 0 19 8 0 4 11 14 16 16 6 98 84
31 100 94 100 100 44 31 5 21 41 75 19 0 0 0 3 5 2 0 0 0 0 0 1 10 6 1 19 29 10 12 100
100 100 98 97 9 35 58 58 100 100 72 56 1 0 4 0 3 0 0 0 0 17 12 10 16 18 15 100 41 19 9 100
5 85 100 100 70 6 58 100 100 100 38 5 5 3 0 0 0 0 0 0 0 0 38 27 25 40 73 40 46 29 96 100
100 5 85 100 100 58 100 100 100 42 12 2 0 0 0 6 4 1 0 0 1 1 27 26 67 88 64 99 92 78 100 100
100 24 98 100 100 100 100 100 47 17 5 5 4 0 0 2 36 30 0 6 14 18 12 57 86 100 75 88 99 94 100 100
100 100 100 100 100 100 100 97 5 5 7 5 0 0 0 87 100 100 97 7 4 18 97 100 99 90 77 100 100 100 93 100
100 100 100 100 100 100 56 5 5 5 5 10 5 4 5 20 100 100 100 49 100 100 100 98 100 100 100 100 100 100 100 100
72 100 100 100 100 100 100 80 100 89 56 100 56 13 8 5 77 100 100 99 72 100 100 100 100 100 100 100 100 100 100 100
100 100 100 100 100 100 100 100 100 99 5 17 48 34 23 73 53 100 100 96 8 67 100 100 100 100 98 100 100 100 100 100
53 100 97 95 11 97 100 100 100 97 5 5 72 100 80 92 100 95 96 43 26 92 83 100 100 100 100 100 100 100 100 100
69 88 100 100 100 100 97 100 100 100 63 5 46 98 99 100 100 100 100 86 97 98 92 100 71 99 100 100 100 100 100 100
100 100 100 100 75 100 94 100 100 100 54 39 82 100 100 100 100 100 100 100 100 100 100 100 100 96 100 100 100 100 100 100
100 100 100 100 94 72 25 14 82 100 57 100 100 100 100 100 100 100 100 100 100 100 100 100 100 100 100 100 100 100 100 100

GFSFLT2_prec_cloud_123.txt.gz
Cloud_Cover
41 35 34 18 30 32 15 24 10 1 0 0 0 0 0 0 0 0 0 0 0 0 0 4 0 0 9 81 5 5 5 12
67 96 100 91 60 14 0 0 16 10 6 0 0 0 0 0 0 0 0 0 0 0 1 0 0 0 20 1 5 5 8 22
100 100 100 100 100 62 12 11 26 20 12 11 23 7 5 0 0 0 0 0 0 0 0 0 0 2 6 12 29 51 26 6
86 100 100 100 100 100 99 100 97 96 82 56 50 54 23 5 0 0 0 0 0 0 0 0 2 67 55 16 35 5 5 11
65 80 88 100 100 100 100 100 100 86 84 56 91 66 34 33 35 25 6 0 5 0 0 10 13 46 44 9 5 8 25 10
32 40 58 63 97 100 100 100 100 100 100 16 91 100 85 47 36 31 22 23 10 8 15 1 21 19 12 10 4 14 30 17
11 26 26 36 62 100 100 100 100 100 100 100 90 100 100 78 100 44 27 27 16 25 16 14 20 19 10 11 7 5 5 18
5 9 6 89 87 42 55 98 100 100 100 100 100 100 100 68 91 81 29 16 22 12 12 15 20 22 26 14 16 6 2 3
1 3 38 15 13 5 32 26 40 46 94 100 100 100 80 44 78 58 30 18 18 27 22 16 24 37 26 40 34 16 15 2
5 2 1 4 43 48 33 15 15 63 100 100 83 87 100 44 68 100 42 28 15 17 27 39 32 60 55 58 99 48 20 14
5 5 3 0 0 8 99 79 97 100 81 28 21 78 92 100 100 100 35 47 36 23 50 40 86 98 88 95 100 93 100 99
5 5 5 2 5 7 65 34 28 93 72 28 11 52 100 100 100 100 33 47 70 72 71 84 76 84 100 100 100 100 100 100
42 49 18 5 5 5 24 36 35 29 38 48 29 83 100 100 100 100 57 84 56 83 93 100 99 100 100 100 100 100 100 100
5 9 62 8 91 99 44 5 92 30 41 100 100 88 64 100 100 100 100 100 100 100 100 100 100 100 100 100 88 98 100 100
3 6 13 5 12 100 100 28 65 100 100 100 100 100 100 100 100 100 100 29 51 99 100 100 100 100 100 81 94 50 89 86
5 4 2 9 92 100 100 46 58 100 100 100 100 100 100 100 100 100 100 63 59 96 100 100 100 100 100 100 100 43 24 92
5 11 98 100 31 92 97 100 100 100 100 100 100 100 100 100 100 94 100 100 100 100 100 100 100 100 100 100 100 100 68 100
25 100 100 100 100 99 100 100 100 100 100 100 100 100 100 100 95 95 100 97 100 100 100 100 100 100 100 100 100 100 75 100
95 100 100 100 100 100 100 100 100 100 100 100 100 100 99 99 99 100 100 94 56 100 100 100 100 100 100 100 100 100 6 43
100 100 100 100 100 100 96 99 100 100 100 100 100 100 97 6 45 72 100 58 100 99 96 100 97 100 100 100 100 100 82 96

GFSFLT2_prec_cloud_126.txt.gz
Cloud_Cover
21 7 0 0 22 46 21 1 0 0 0 0 0 0 0 0 0 0 0 0 0 0 0 0 0 0 0 0 0 1 5 5
61 45 33 33 65 51 32 10 2 5 5 0 0 0 0 0 0 0 0 0 0 0 0 0 0 6 0 0 0 0 5 5
100 93 39 92 99 80 34 28 9 8 5 0 10 1 0 5 5 0 0 0 0 0 0 0 0 14 0 0 0 1 5 6
92 78 100 100 100 98 60 87 91 68 59 33 33 24 15 64 5 3 0 0 0 1 0 0 6 82 28 4 0 0 2 15
81 99 100 100 100 100 100 100 100 100 100 100 63 41 34 29 36 25 14 2 14 10 26 26 35 100 43 20 0 0 0 5
76 100 100 100 88 100 100 100 100 100 100 100 100 99 83 99 39 35 26 26 16 15 22 22 28 75 19 5 0 6 22 20
75 100 100 100 97 100 100 100 100 100 100 100 100 100 99 88 65 40 34 31 18 26 14 25 33 37 26 3 0 0 5 24
28 82 82 100 100 86 100 100 100 100 100 100 99 100 100 100 97 45 38 29 28 27 13 21 30 33 30 10 0 0 0 3
100 23 43 68 97 100 100 100 100 100 100 100 100 100 100 100 100 70 33 34 28 30 22 15 26 28 26 25 14 3 3 17
63 3 15 23 20 46 68 99 100 100 100 100 100 100 100 100 100 100 41 36 56 34 36 38 28 68 96 86 71 34 9 3
100 53 1 4 3 9 12 52 62 64 68 96 100 100 97 100 55 75 39 58 67 34 68 18 98 97 98 100 100 100 35 66
100 98 5 2 4 9 37 55 26 42 14 27 58 94 95 68 53 62 52 100 100 55 22 88 95 99 100 100 100 100 98 100
98 100 15 15 5 32 74 56 81 75 38 9 16 72 58 68 89 48 100 100 100 91 100 100 100 100 100 100 100 100 87 36
6 83 100 88 2 5 5 5 57 61 92 67 100 76 44 92 88 97 100 100 95 100 100 100 100 100 100 99 44 87 100 100
32 54 73 100 65 35 94 52 61 100 100 97 63 100 74 33 85 86 100 100 100 100 86 100 100 100 100 100 100 32 83 99
92 44 85 100 76 8 79 23 72 88 80 81 99 100 100 100 100 98 100 100 100 100 99 45 100 100 100 100 100 88 25 82
100 100 100 100 100 98 100 29 48 44 42 99 100 100 100 100 100 100 100 100 100 100 82 89 100 100 100 100 100 100 100 100
83 100 100 100 86 94 100 100 47 52 73 78 100 100 100 100 100 100 83 100 100 100 100 100 100 100 100 100 100 100 100 100
89 100 100 92 81 100 100 86 98 100 100 100 100 100 100 100 100 100 100 100 100 100 100 100 100 100 100 100 100 100 100 100
81 100 100 100 100 99 59 96 100 100 100 100 100 100 100 100 100 100 100 100 100 99 100 100 100 76 100 100 100 100 100 100

GFSFLT2_prec_cloud_132.txt.gz
Cloud_Cover
39 4 1 30 0 0 0 0 0 0 0 0 0 0 0 0 0 0 0 0 0 0 0 0 0 0 0 0 0 0 44 35
21 19 0 0 0 7 0 0 0 0 0 0 0 6 0 5 1 2 0 5 0 0 0 0 0 0 0 0 0 8 48 8
18 19 13 7 12 6 53 24 1 9 13 3 68 0 0 8 1 6 5 5 5 5 1 0 0 9 0 0 11 29 23 36
0 15 18 1 2 14 2 0 0 0 1 0 0 1 5 2 9 5 5 66 5 5 5 6 45 0 4 40 0 33 2 36
5 23 10 30 3 6 0 0 0 7 5 5 8 44 63 51 63 58 8 13 5 42 20 52 8 28 15 0 1 0 36 63
5 3 7 96 93 24 34 3 0 3 6 24 8 53 97 69 100 72 99 19 79 75 95 100 67 22 2 11 0 2 21 38
5 4 89 59 5 1 3 0 6 1 10 39 17 24 59 61 97 100 100 94 100 94 92 88 84 16 5 18 15 6 2 3
98 21 21 100 95 0 12 36 12 11 6 60 43 10 43 64 94 99 100 100 98 44 69 68 57 68 24 23 41 40 47 28
82 35 98 100 100 67 5 16 85 95 67 87 100 30 37 55 42 35 88 98 92 71 96 99 75 57 73 59 51 42 52 58
100 100 22 98 100 100 95 5 93 100 52 80 100 99 32 62 54 22 44 96 82 90 98 86 90 93 69 79 86 89 68 50
100 100 100 72 100 100 100 4 11 10 93 88 100 90 92 74 37 69 21 91 100 44 53 76 64 87 97 100 92 99 9 48
100 98 100 100 100 100 100 95 11 10 27 5 44 100 100 100 66 99 31 6 84 100 99 56 67 52 100 100 100 100 24 67
71 100 52 100 100 100 100 100 100 28 7 8 5 98 100 100 82 72 74 6 8 100 100 100 95 99 100 100 96 100 61 30
11 5 42 7 5 82 100 100 100 20 5 7 22 100 100 100 67 94 30 71 68 100 100 100 100 100 90 80 91 100 72 55
5 6 27 12 5 14 100 100 100 21 97 92 91 65 71 100 99 43 34 75 100 100 100 100 100 100 63 97 100 100 100 70
4 0 5 7 49 22 20 100 100 100 100 87 32 8 66 70 99 100 95 100 100 100 100 100 100 100 100 97 100 100 100 100
0 2 4 13 46 65 5 80 100 100 100 100 100 64 14 48 100 100 98 100 100 100 100 100 100 100 100 100 100 100 100 100
0 2 11 34 9 90 75 53 100 100 100 100 100 100 70 77 100 98 100 93 100 100 100 100 100 100 100 100 100 100 100 100
100 84 95 85 98 100 100 97 100 100 100 100 100 100 100 100 100 100 100 100 100 100 100 100 100 100 100 100 100 100 100 100
100 100 100 100 100 100 100 100 100 100 100 100 100 100 100 100 100 100 100 100 100 100 100 100 100 100 100 100 100 100 100 100

GFSFLT2_prec_cloud_138.txt.gz
Cloud_Cover
0 0 0 4 4 12 8 0 0 0 0 0 0 0 0 0 5 4 0 0 0 0 0 5 0 0 0 0 0 0 0 79
0 0 0 0 3 12 7 0 0 0 0 0 0 9 0 4 6 5 4 1 0 0 5 3 5 5 5 0 0 0 19 4
5 4 5 5 5 6 53 22 1 9 5 9 76 0 0 4 0 5 5 0 5 0 5 5 5 8 5 5 0 0 83 71
2 4 93 100 85 8 3 19 25 1 0 43 0 0 0 0 0 0 0 0 0 1 37 5 9 5 17 5 5 3 71 23
5 1 3 8 6 24 5 5 0 0 1 7 0 0 0 0 3 10 12 4 14 46 60 21 19 5 5 5 5 0 72 0
0 5 44 75 93 31 4 5 0 4 0 5 0 0 0 0 0 5 74 8 26 76 69 38 56 6 23 80 9 77 89 99
1 0 5 98 97 83 79 22 19 2 1 0 4 1 1 0 0 0 78 100 59 32 39 28 22 5 100 100 31 100 36 88
5 1 3 92 100 100 97 100 100 100 85 5 5 1 33 3 6 31 5 56 100 69 50 31 8 15 100 100 100 89 99 100
5 5 0 37 81 100 99 100 91 92 99 100 39 15 1 0 5 96 100 46 5 96 99 100 100 87 100 100 73 100 97 100
40 30 5 2 12 7 99 98 100 66 65 81 77 96 70 3 4 32 99 77 5 95 30 99 77 75 69 100 22 61 100 100
86 5 4 3 6 10 52 97 99 77 100 94 94 7 25 43 5 31 32 24 9 42 100 41 64 50 52 100 100 100 68 13
56 16 0 0 0 4 52 81 100 100 100 100 100 82 7 19 4 2 4 23 48 20 97 100 61 50 48 30 98 100 100 100
0 5 4 4 0 0 10 17 100 100 100 100 100 100 96 0 5 3 0 77 100 73 10 58 10 66 99 100 100 100 100 100
0 4 1 0 0 0 0 4 26 5 61 100 100 100 93 92 7 36 3 5 55 94 14 66 17 76 100 100 100 100 100 100
0 0 1 5 0 0 0 1 14 96 77 100 100 100 100 100 87 7 60 1 5 37 46 30 10 5 14 100 100 100 100 95
0 2 0 0 0 0 0 0 70 68 55 100 100 100 100 100 100 63 53 10 6 94 98 95 83 20 92 100 100 100 100 100
52 17 0 0 0 0 0 0 0 5 82 82 100 100 71 39 33 100 55 70 9 100 100 100 99 80 22 99 100 100 100 100
93 94 44 56 57 11 0 0 0 2 59 94 100 100 100 64 35 89 100 19 52 50 99 97 100 100 50 98 100 69 100 94
100 99 95 100 100 98 24 0 0 0 96 53 100 100 86 100 12 18 91 51 5 8 60 100 100 100 68 86 100 40 65 100
100 100 100 100 100 100 24 0 1 20 100 100 93 80 88 99 21 20 82 51 88 13 61 69 100 100 100 100 100 98 98 100

GFSFLT2_prec_cloud_141.txt.gz
Cloud_Cover
0 0 0 1 19 18 12 0 0 0 0 0 0 0 0 0 0 0 0 5 5 5 3 3 0 3 4 1 5 14 0 1
5 4 7 27 98 41 32 10 2 0 0 0 0 0 0 0 0 0 0 0 3 5 5 5 5 5 5 5 5 3 1 0
5 0 0 3 18 44 32 31 23 8 0 3 94 11 2 0 0 0 0 0 0 1 0 5 0 3 5 40 42 3 0 0
0 0 0 0 0 7 45 73 85 59 22 68 43 22 16 1 0 0 0 0 5 5 0 1 0 11 5 14 5 5 5 0
0 0 0 0 0 2 15 56 88 80 42 63 32 2 0 0 12 10 37 4 11 36 12 9 5 34 34 5 5 5 8 2
2 1 0 62 27 95 54 5 34 60 51 37 24 0 2 0 9 65 58 17 12 24 29 32 5 5 18 5 5 5 3 52
1 0 2 0 74 100 100 100 78 3 6 22 6 0 1 0 0 34 38 6 11 7 99 29 17 11 33 78 93 43 88 44
6 0 1 17 0 37 100 100 100 67 71 98 18 5 6 96 8 5 0 5 6 86 5 19 89 86 21 86 100 17 100 14
4 2 0 0 0 0 84 100 100 79 99 100 100 61 22 71 100 90 7 1 7 76 92 32 5 6 5 99 77 81 77 83
64 10 5 4 4 4 2 87 100 99 100 100 100 48 49 6 66 100 41 2 5 8 44 37 88 79 78 99 94 37 47 100
80 100 70 22 6 5 3 4 50 100 85 100 100 100 100 96 100 16 9 5 1 4 24 100 100 97 100 83 100 100 74 62
53 100 100 94 5 1 1 0 41 86 95 91 100 100 100 82 98 94 77 30 4 3 5 77 100 100 100 100 96 100 100 98
1 5 4 4 0 0 0 0 0 0 9 90 89 100 100 100 23 48 22 86 0 5 10 90 100 100 100 99 57 100 100 100
1 1 0 0 0 0 4 0 0 0 0 9 73 88 100 100 100 100 100 36 5 4 5 5 97 100 100 77 12 17 8 100
5 6 73 50 0 8 38 30 1 0 0 0 3 66 100 100 100 99 12 29 13 5 5 5 11 52 100 77 22 15 33 86
24 42 100 46 9 61 87 99 27 16 2 0 0 4 91 100 100 99 5 5 7 77 97 90 70 55 91 58 5 5 53 24
97 99 100 88 100 100 100 100 88 3 3 0 0 0 35 97 100 53 91 92 73 90 98 99 87 84 97 100 100 78 22 100
90 100 100 100 100 100 100 100 100 66 2 2 0 1 6 100 100 97 97 38 100 100 100 92 34 94 94 6 100 100 78 100
87 100 100 100 100 100 100 100 100 99 36 0 0 0 27 43 100 95 100 100 100 100 100 98 5 26 61 95 46 90 100 39
100 100 100 100 100 100 100 100 100 100 82 29 2 0 40 100 100 100 100 100 99 48 98 95 100 99 100 56 19 31 100 100

GFSFLT2_prec_cloud_144.txt.gz
Cloud_Cover
0 4 0 1 15 10 11 0 0 0 0 0 0 0 0 0 0 0 0 0 0 0 0 3 3 3 0 0 0 2 5 0
0 2 10 56 81 38 35 13 7 1 0 0 4 2 0 0 0 0 0 0 0 0 0 0 0 0 5 5 5 5 5 0
0 0 2 18 93 94 41 27 20 19 10 9 91 12 2 0 2 2 0 0 0 0 1 5 5 0 5 1 5 6 4 0
5 4 0 43 99 41 84 100 88 77 50 78 77 42 33 21 13 8 1 0 0 0 0 4 5 3 0 0 4 5 5 5
94 83 29 4 3 100 90 100 100 100 98 100 100 63 55 60 52 54 52 8 20 7 12 26 5 5 5 5 5 1 5 0
39 100 34 4 55 20 100 99 100 99 100 100 100 100 98 97 73 100 100 74 40 32 30 21 2 5 8 15 5 5 5 5
0 5 15 31 2 56 46 100 93 100 100 100 100 100 100 96 95 100 100 87 31 46 35 1 5 5 5 5 7 5 5 34
4 2 1 44 100 61 2 67 91 100 100 100 100 100 100 100 100 100 100 78 35 9 16 4 5 5 5 5 5 96 100 56
94 5 5 0 19 100 13 2 71 83 100 98 100 100 100 100 100 100 100 94 5 26 49 5 2 74 35 5 5 92 54 100
100 100 91 6 16 24 54 8 0 27 44 100 100 100 100 100 100 100 100 100 96 78 76 77 5 43 100 69 35 63 60 94
98 100 100 97 79 5 4 64 4 0 5 22 100 100 100 100 100 99 70 100 100 13 93 86 100 19 100 100 99 54 82 23
89 100 100 100 88 23 1 0 1 0 1 99 99 100 100 100 100 100 99 88 100 100 72 78 100 81 59 100 100 100 100 100
5 5 5 0 0 15 21 55 0 0 0 4 48 100 100 100 100 100 100 100 100 100 100 100 92 82 90 86 100 100 100 100
5 5 5 6 32 69 78 100 89 2 0 0 1 95 37 87 100 100 100 100 100 100 100 100 100 94 94 47 58 81 100 74
5 11 14 56 82 99 87 100 100 70 3 0 0 0 28 5 26 88 100 100 100 98 100 100 98 94 100 83 78 54 98 67
23 98 100 99 98 98 100 100 100 100 100 28 1 0 0 0 6 90 100 100 100 100 100 100 80 83 100 100 98 17 19 95
100 100 100 100 100 100 100 100 100 100 100 100 21 0 0 0 2 100 100 100 100 100 100 100 100 100 100 81 7 52 18 87
100 100 100 100 100 100 100 100 100 100 100 100 100 53 0 0 0 100 100 100 100 100 100 100 100 47 100 94 27 6 100 29
100 100 100 100 100 100 100 100 100 100 100 100 100 96 44 0 0 8 100 100 100 100 100 100 100 100 100 100 100 64 13 84
100 100 100 100 100 100 100 100 100 100 100 100 100 100 100 94 0 1 100 100 100 100 100 100 100 100 100 100 100 93 75 7

GFSFLT2_prec_cloud_150.txt.gz
Cloud_Cover
100 68 41 98 98 99 100 91 18 0 0 0 0 0 0 0 0 0 0 0 0 0 0 0 0 0 0 0 0 0 0 0
5 8 56 98 99 38 68 98 96 92 4 9 10 10 0 0 0 0 0 0 0 0 0 0 0 0 0 0 0 0 0 0
0 11 12 5 15 34 85 77 82 100 40 62 95 63 10 0 0 1 0 0 0 0 0 2 1 0 0 0 0 0 0 0
5 0 0 2 0 0 9 100 59 50 24 50 100 100 68 11 6 17 8 11 7 35 5 5 5 6 4 0 0 0 0 0
66 5 1 0 2 0 5 5 18 9 71 17 31 91 100 96 85 88 81 78 60 21 18 25 39 18 35 5 5 0 0 0
100 62 54 14 5 4 2 4 5 2 5 58 100 42 86 100 100 100 100 100 100 83 42 89 76 100 100 100 33 5 4 0
43 100 100 100 93 18 5 5 5 5 2 45 86 100 61 94 93 100 100 100 100 100 82 67 99 100 100 100 100 9 0 0
12 96 100 100 100 100 98 15 5 5 5 5 5 32 100 95 82 100 100 100 100 100 100 58 100 98 100 100 100 38 5 2
5 9 36 99 96 100 100 100 98 11 21 81 12 0 2 85 100 97 100 100 100 100 100 99 100 100 100 100 45 22 55 8
5 5 6 35 22 30 99 100 100 100 11 3 0 2 0 0 100 100 90 100 100 100 100 100 100 99 87 100 100 68 100 28
85 100 100 100 91 10 3 2 16 57 90 83 6 1 1 32 22 100 100 100 100 100 100 100 100 99 69 100 100 99 61 100
100 91 37 26 43 70 80 85 5 2 1 5 5 14 41 27 32 60 99 100 100 100 100 100 100 100 96 100 100 100 100 100
99 100 100 100 100 100 88 66 57 37 62 7 0 2 10 31 38 30 25 100 100 100 100 100 100 100 100 100 100 100 100 100
100 100 100 100 95 99 95 100 100 99 89 99 44 0 89 100 100 100 54 91 100 81 100 100 100 100 100 100 58 86 100 100
100 100 100 100 100 100 100 100 100 100 100 100 58 22 6 100 100 100 100 70 99 100 99 100 100 100 100 100 100 62 100 100
100 99 99 100 100 100 100 100 100 100 100 100 100 50 52 100 100 100 100 86 86 23 21 59 100 100 100 100 100 100 94 100
100 100 100 100 100 100 100 100 100 100 100 100 100 100 100 100 100 100 100 100 78 57 18 96 79 100 100 100 100 100 100 100
82 96 100 100 100 100 100 100 100 100 100 100 100 100 100 100 100 100 100 100 100 100 33 5 98 100 100 100 100 100 100 100
95 82 100 100 100 100 100 100 100 100 100 100 100 100 100 100 100 100 100 100 100 100 100 58 65 100 100 100 100 100 100 100
81 100 100 100 100 100 100 100 100 100 100 100 100 100 100 100 100 100 100 100 100 100 100 100 1 100 100 100 100 100 100 100

GFSFLT2_prec_cloud_153.txt.gz
Cloud_Cover
31 11 5 79 98 100 98 96 43 86 1 4 0 0 0 0 0 0 0 0 0 0 0 0 0 0 0 0 0 0 0 0
21 15 5 3 1 87 94 91 100 100 96 60 88 20 8 5 4 0 0 1 0 0 0 0 0 0 0 0 0 0 0 0
10 5 4 5 0 0 5 15 16 96 100 11 77 93 100 100 5 4 0 3 3 3 4 5 5 7 3 0 9 2 4 0
92 15 5 5 5 4 0 0 0 0 80 100 100 70 98 100 100 89 24 2 25 10 99 40 48 15 62 22 5 4 5 0
84 91 30 5 4 4 5 1 0 0 0 22 21 98 70 19 100 100 46 26 63 87 96 100 67 20 82 64 45 24 5 0
91 61 100 88 86 30 5 5 5 5 0 0 1 25 80 100 47 100 100 100 100 100 92 100 77 73 43 96 100 100 53 3
88 80 68 100 100 58 40 36 5 5 5 3 1 1 5 98 99 88 34 100 100 100 100 100 6 40 52 10 32 99 100 32
100 100 96 99 100 100 100 95 67 8 3 5 5 1 1 4 32 100 100 98 100 99 100 100 99 100 100 98 100 34 100 84
97 91 14 100 100 100 100 100 98 89 6 0 1 1 4 9 0 1 79 100 100 98 95 100 97 98 100 100 93 100 100 100
5 44 29 45 98 100 100 100 100 75 9 15 29 6 5 18 46 65 17 86 100 94 98 100 100 100 100 100 100 100 85 80
4 4 9 78 100 100 100 100 100 100 100 91 19 3 4 31 30 28 61 7 40 98 100 100 100 100 100 100 100 100 99 82
69 9 5 4 2 47 57 58 21 8 11 76 59 34 16 47 72 91 95 66 11 40 100 100 100 100 100 100 100 100 59 100
19 6 91 100 69 7 21 87 62 100 94 73 26 63 87 69 100 100 100 100 99 37 84 100 100 100 100 100 100 100 100 100
6 7 5 24 54 32 38 96 100 100 100 100 86 83 98 100 100 100 100 100 100 100 74 100 100 100 100 100 100 100 90 100
27 29 23 68 93 92 93 100 100 100 100 100 100 100 99 100 100 100 100 100 100 100 91 88 100 100 100 100 100 100 100 100
32 43 38 46 80 92 98 100 99 99 100 100 100 100 99 97 100 100 100 100 100 100 100 92 33 100 100 100 100 100 100 100
40 42 27 78 100 100 100 100 100 100 100 100 100 100 100 100 100 100 100 100 100 100 100 100 100 100 100 100 100 100 100 100
10 34 37 88 100 100 100 100 100 100 100 100 100 100 100 100 100 100 100 100 100 100 100 100 100 100 100 100 100 100 100 100
100 100 83 92 100 100 100 100 100 100 100 100 100 100 90 100 100 100 100 100 100 100 100 100 100 100 100 88 82 81 100 100
100 100 100 100 100 100 100 100 100 100 100 100 100 100 100 100 100 100 100 100 100 100 100 100 100 100 100 99 10 24 100 100

GFSFLT2_prec_cloud_156.txt.gz
Cloud_Cover
5 0 0 1 90 97 100 95 100 100 70 28 4 11 85 25 5 5 3 0 0 0 0 0 0 0 0 0 0 0 0 4
0 0 0 5 5 14 23 50 99 100 99 100 98 20 100 100 100 100 94 90 40 0 0 0 0 0 0 0 0 2 0 2
4 2 5 5 5 5 5 5 5 1 22 70 89 100 89 21 100 100 100 100 75 14 5 0 5 7 5 5 15 5 5 4
34 52 28 5 5 10 13 5 2 0 3 3 0 35 93 79 59 100 100 99 100 100 100 28 58 69 18 47 14 5 6 5
8 5 7 11 22 5 3 4 5 5 0 4 0 0 6 86 70 88 100 100 100 100 60 5 65 59 33 5 46 86 71 19
5 100 100 76 9 21 61 20 5 4 5 2 3 5 0 5 5 91 100 100 100 100 100 100 95 47 13 93 96 88 100 55
5 12 93 100 100 95 10 5 5 1 4 5 5 5 5 2 2 4 23 97 100 100 100 100 98 100 98 42 100 100 100 28
0 8 79 100 100 100 100 100 76 6 5 5 3 5 4 5 2 2 5 5 81 100 100 100 100 100 100 100 100 100 100 100
1 0 5 98 100 100 100 100 70 38 5 5 5 5 16 9 5 5 1 5 5 14 87 100 100 100 100 100 100 97 100 100
0 0 0 1 13 78 100 100 100 100 98 30 5 3 5 5 5 3 7 10 2 5 46 48 100 100 100 100 100 100 100 100
0 0 1 2 0 4 3 5 25 86 98 100 36 34 81 47 2 8 58 14 24 7 3 86 96 100 100 100 100 100 100 100
1 4 0 0 1 4 4 5 6 23 12 38 46 19 71 70 60 98 100 100 96 70 95 100 100 100 100 100 100 100 100 100
0 3 0 0 0 0 1 4 42 71 93 100 98 78 90 100 100 100 100 100 100 100 100 100 98 99 79 100 100 100 100 100
0 1 1 0 0 0 0 0 0 0 31 86 100 100 97 87 100 100 98 100 100 100 100 99 100 88 82 100 100 100 100 100
4 5 5 4 6 0 0 0 0 0 5 5 5 30 60 87 100 100 100 100 100 100 100 100 100 100 100 100 100 100 100 100
7 5 4 4 22 14 36 4 3 17 18 7 12 44 62 78 88 98 100 100 100 100 100 100 100 100 100 35 62 100 100 100
100 67 5 8 49 72 68 67 57 55 67 50 48 70 95 100 100 100 100 100 100 100 100 100 100 100 100 100 100 76 100 100
100 100 73 54 100 98 100 100 96 94 86 88 63 63 67 90 100 100 100 100 100 100 100 100 100 100 100 100 100 100 100 100
99 100 49 36 49 67 67 100 100 100 100 99 100 70 56 94 100 100 99 100 100 100 100 100 100 100 100 100 100 100 54 92
100 100 28 38 64 55 57 58 91 100 100 100 100 100 100 98 100 100 100 100 100 100 100 100 100 100 100 100 100 100 100 100

GFSFLT2_prec_cloud_162.txt.gz
Cloud_Cover
0 0 0 5 5 8 52 54 50 1 3 1 11 19 38 5 100 100 32 0 2 5 4 3 1 0 0 0 0 0 0 0
0 1 0 5 5 3 0 0 0 0 0 1 5 5 12 23 14 100 100 66 36 16 67 30 73 86 84 36 100 7 0 0
0 3 6 59 71 5 0 0 0 0 0 5 5 5 5 5 9 64 100 100 100 100 100 100 100 100 100 78 100 74 4 0
23 67 44 12 5 5 2 0 0 0 0 0 7 47 6 5 4 2 5 89 100 100 100 100 100 100 100 96 24 22 62 9
5 5 5 5 4 2 0 0 0 0 0 0 5 2 5 4 0 5 3 5 17 100 100 100 100 100 100 100 98 92 58 35
32 9 5 4 0 0 0 0 0 0 0 0 1 4 5 7 4 4 5 5 4 6 82 100 100 100 92 100 100 100 100 100
8 16 4 3 2 0 0 0 0 0 0 0 3 100 56 66 8 2 0 5 5 5 3 90 100 100 100 100 100 100 100 100
5 5 0 2 0 0 0 0 0 0 0 0 0 0 57 100 98 65 8 5 5 5 5 5 15 100 100 100 98 100 100 100
31 5 5 1 0 0 0 0 0 0 4 0 0 0 4 5 17 100 100 88 16 5 5 5 5 6 99 100 100 70 100 100
61 6 24 59 5 0 1 0 0 0 0 0 0 0 0 0 0 3 85 90 100 81 5 5 5 5 5 48 100 100 100 100
17 98 77 8 5 3 1 0 1 0 0 1 4 0 0 0 0 0 0 0 2 4 26 46 59 8 2 4 56 96 100 100
100 100 100 100 100 100 94 8 0 0 0 3 1 1 0 1 0 1 19 5 9 79 49 24 23 80 88 4 4 63 100 100
100 100 100 100 100 100 12 5 5 0 0 0 0 6 77 44 76 100 100 100 100 100 100 100 100 100 10 5 15 7 10 98
95 76 74 90 46 12 26 5 7 5 2 2 0 11 96 100 77 88 100 98 100 100 100 100 100 100 100 84 20 5 4 7
20 41 76 65 22 40 5 5 4 5 6 4 3 13 60 97 100 100 100 100 100 100 100 100 100 100 100 100 100 62 100 0
7 6 88 97 97 72 22 5 31 100 51 49 24 12 60 48 95 100 100 100 100 100 100 100 100 100 100 100 100 100 100 99
100 100 93 100 100 100 100 100 100 100 100 98 45 5 7 7 60 100 100 100 100 100 100 100 100 100 100 100 100 100 100 100
100 100 100 100 100 100 100 100 86 46 6 15 75 54 86 5 29 100 100 100 100 100 100 100 100 100 100 100 100 100 100 100
100 100 100 100 100 100 100 100 100 71 46 20 18 5 5 54 93 100 100 100 100 100 100 100 100 100 100 100 100 100 100 100
100 100 100 100 100 100 100 100 100 100 96 69 92 56 63 100 100 100 100 100 100 100 100 100 100 100 100 100 100 100 100 100

GFSFLT2_prec_cloud_165.txt.gz
Cloud_Cover
89 100 25 1 0 0 0 5 5 7 78 3 0 0 1 2 10 8 5 8 100 84 22 6 7 32 5 64 85 66 27 100
1 0 0 0 0 2 9 66 97 29 5 0 0 0 0 4 5 5 5 69 50 100 51 100 78 62 6 56 100 100 57 72
0 0 0 0 0 2 5 5 5 5 5 0 0 0 0 0 2 5 5 5 13 100 98 99 99 74 100 90 99 100 100 15
3 0 5 1 0 0 0 0 0 1 0 0 0 0 0 0 1 2 5 5 5 31 87 100 100 60 100 100 100 100 65 93
5 5 5 5 5 9 4 0 0 3 0 0 0 0 0 0 0 4 5 5 5 0 4 5 58 100 100 100 100 100 50 98
100 65 26 9 18 6 5 28 1 0 0 0 4 0 0 0 0 0 60 36 5 5 5 3 5 12 24 100 100 98 100 100
100 79 49 78 75 7 7 5 5 5 0 0 0 0 0 0 0 0 27 94 100 36 5 5 5 5 5 40 41 86 60 98
100 100 96 100 94 5 17 5 30 4 0 0 0 0 0 0 0 0 0 1 30 90 100 64 5 47 5 20 90 15 75 100
100 100 100 80 44 5 19 96 100 75 5 4 0 0 0 0 0 0 0 0 0 0 9 100 96 7 63 5 36 62 22 100
97 92 93 62 83 99 100 100 100 100 100 51 5 1 0 0 0 0 0 0 0 0 1 9 90 100 42 11 5 33 15 99
5 19 93 73 100 100 100 100 100 100 100 100 91 10 3 0 0 0 0 2 21 57 90 72 75 88 94 98 33 5 5 13
7 57 86 100 83 100 100 89 93 100 100 44 15 18 7 0 0 0 0 0 37 66 81 77 68 100 73 19 48 76 5 5
8 9 100 75 100 100 55 94 93 96 94 93 97 85 5 0 0 1 39 97 100 100 100 100 98 100 87 2 0 0 5 9
21 89 96 100 100 96 100 84 5 4 3 10 86 58 11 5 2 38 99 89 100 100 100 100 100 100 100 61 7 1 0 0
100 100 100 100 100 100 100 100 78 24 45 81 88 100 100 66 62 94 30 97 100 100 100 100 100 100 100 100 91 89 100 0
100 100 100 94 100 100 100 100 100 100 99 100 92 93 84 12 14 77 100 100 99 93 100 100 100 100 100 100 100 100 100 97
100 100 100 100 100 100 100 100 100 100 100 100 95 39 90 100 91 100 100 100 100 100 100 100 100 100 100 100 100 100 100 100
100 100 100 100 100 100 100 100 100 100 98 100 100 100 78 100 100 100 100 100 100 100 100 100 100 100 100 100 100 100 100 100
86 100 100 100 100 100 100 100 100 100 100 100 100 84 93 100 78 100 98 100 100 100 100 100 100 100 100 100 100 100 100 100
76 29 99 68 38 89 100 100 100 100 100 100 100 100 96 91 99 100 100 100 88 100 100 100 100 100 100 100 100 100 99 98

GFSFLT2_prec_cloud_168.txt.gz
Cloud_Cover
0 10 39 36 5 5 1 0 0 0 0 4 16 5 4 0 0 0 0 0 15 30 50 82 100 100 64 32 5 5 33 100
5 2 0 0 0 4 1 0 0 0 0 7 5 5 5 0 0 0 0 0 1 5 5 41 72 100 100 100 63 6 8 21
12 4 4 6 25 5 5 5 5 2 4 4 0 0 1 0 0 0 0 0 0 1 5 5 5 93 100 100 100 100 81 29
5 5 4 4 2 4 5 5 5 0 5 5 5 4 4 5 0 0 0 0 0 0 5 5 5 62 100 100 100 100 100 80
97 73 4 5 5 5 4 4 14 5 5 17 74 49 16 5 4 0 0 0 0 0 0 2 5 5 4 62 100 100 100 100
100 100 100 68 81 100 66 38 42 5 5 16 5 5 5 5 2 0 0 0 0 0 0 7 9 5 3 0 2 76 97 100
100 100 100 99 100 100 100 100 90 54 4 2 5 6 2 0 0 0 0 0 0 0 0 0 6 8 5 17 4 38 83 67
96 54 80 79 85 91 60 22 45 65 54 5 24 80 12 0 0 0 0 0 0 0 0 0 0 4 55 95 47 5 9 70
30 35 100 100 97 85 47 55 5 4 5 93 100 99 100 61 4 4 0 0 0 0 0 0 0 0 0 1 72 100 28 5
5 5 16 47 5 3 1 2 3 16 5 5 41 100 100 100 71 16 5 1 0 0 3 0 0 0 0 0 0 9 79 99
5 100 100 100 100 90 8 5 5 3 59 5 5 12 64 100 100 100 86 23 1 0 0 0 1 1 0 0 0 0 0 17
5 14 72 92 25 5 10 9 5 5 4 54 90 9 63 5 32 41 33 23 6 0 4 4 36 45 0 0 0 0 0 0
70 5 5 9 61 100 100 58 18 24 5 77 90 100 40 34 56 7 4 39 65 59 70 59 92 61 0 0 0 0 0 0
100 100 100 100 98 100 100 100 100 100 100 90 100 100 100 100 95 23 62 100 100 100 100 100 100 98 94 87 1 1 0 0
100 100 100 100 100 100 100 100 100 100 100 100 100 100 100 100 100 100 100 79 92 100 100 99 100 100 100 82 81 88 95 1
100 100 100 100 95 100 100 100 100 100 100 100 100 100 100 100 100 100 100 76 29 95 98 100 100 100 100 100 100 100 100 93
100 100 100 100 100 100 100 100 100 100 100 100 100 100 100 100 100 100 100 100 82 79 91 98 100 100 100 100 100 100 100 100
100 100 100 100 97 100 82 99 100 100 100 100 100 100 100 100 100 100 100 100 87 99 76 100 60 100 100 93 92 100 100 100
100 100 51 5 31 28 5 54 87 100 100 100 100 100 100 100 98 98 100 92 60 100 91 59 99 76 75 9 50 99 94 75
100 100 87 64 79 100 100 99 32 100 100 98 100 93 96 88 83 92 47 64 83 100 100 100 99 73 71 56 78 65 6 61

GFSFLT2_prec_cloud_171.txt.gz
Cloud_Cover
35 5 38 5 5 5 2 4 5 0 0 0 0 0 0 0 0 0 0 0 14 0 2 21 100 83 69 100 100 100 48 64
100 89 82 24 5 5 2 5 0 0 2 5 5 4 2 0 0 6 0 0 0 0 0 0 1 100 100 100 87 100 100 64
100 100 85 18 62 44 11 5 5 2 3 5 6 12 10 5 5 5 3 0 0 2 0 0 0 0 96 100 98 86 100 96
91 100 97 86 91 100 48 5 6 4 2 26 8 7 3 5 38 27 5 5 5 4 0 0 0 0 0 22 51 97 97 89
100 100 100 100 100 100 100 89 26 47 75 100 90 76 17 4 24 5 5 38 5 5 0 0 0 0 0 3 4 6 95 100
100 100 100 100 100 100 100 100 100 71 100 100 100 100 97 8 4 4 2 5 8 6 2 0 0 0 0 0 5 23 5 8
82 78 49 62 12 42 21 68 100 100 100 100 93 80 64 26 5 4 0 0 0 0 0 0 0 0 0 0 0 4 39 92
5 5 5 3 0 4 5 4 12 9 19 16 48 41 22 5 1 0 4 9 4 0 0 0 0 0 0 0 0 0 0 39
5 5 5 1 5 5 5 12 9 5 4 0 0 1 4 4 2 0 1 4 4 5 4 0 0 0 0 3 0 2 0 5
0 0 0 0 0 4 4 3 3 0 4 5 5 1 2 1 4 1 0 0 0 5 3 0 0 0 5 0 4 3 5 0
0 0 1 1 0 0 0 5 44 39 9 5 38 100 98 62 55 27 29 5 4 3 2 3 1 0 0 0 0 0 0 0
0 0 0 0 0 5 29 79 84 100 100 100 100 100 100 100 100 100 100 100 63 33 5 5 5 4 0 0 0 0 0 0
15 5 5 3 2 5 50 100 100 100 100 100 100 100 100 100 100 100 100 100 100 100 100 97 49 4 5 4 0 0 0 0
31 47 53 38 26 92 100 100 97 100 100 100 100 90 93 100 100 100 100 100 100 100 100 100 100 38 50 24 100 7 4 0
98 88 96 75 74 87 94 100 100 100 100 95 100 100 100 100 100 100 100 99 100 100 100 100 100 100 94 52 63 94 56 2
26 5 5 17 11 98 74 99 64 64 86 61 63 96 100 98 98 100 100 100 100 100 100 100 100 100 99 100 100 100 100 97
93 96 46 96 95 66 54 88 100 100 84 95 97 62 14 5 54 71 93 100 100 100 100 100 100 100 100 100 100 100 100 100
83 67 96 100 100 100 100 100 100 31 10 5 5 5 5 7 64 30 28 46 100 100 80 100 100 100 100 100 100 100 100 100
96 92 100 96 99 100 78 62 65 21 44 21 5 5 39 41 24 9 5 63 82 70 69 96 91 77 98 96 88 93 62 100
100 80 16 11 2 8 34 6 63 98 68 98 36 65 69 90 92 31 13 21 23 85 18 88 100 90 79 84 94 89 70 100

GFSFLT2_prec_cloud_177.txt.gz
Cloud_Cover
64 15 5 5 84 100 100 100 100 100 100 17 14 35 9 5 5 1 0 0 0 0 0 0 1 18 96 96 98 100 95 53
88 79 64 98 60 92 88 100 100 94 13 5 5 5 5 5 5 5 5 0 4 6 3 0 0 0 2 17 96 100 98 100
63 7 5 14 38 12 50 88 6 5 5 4 2 12 16 32 100 100 14 6 75 97 91 76 5 0 0 0 0 0 15 73
54 30 10 5 18 28 54 61 63 74 73 97 94 77 58 42 15 3 2 6 7 5 5 9 42 5 1 0 0 0 0 0
0 5 5 4 2 0 2 1 5 4 7 1 0 0 0 0 0 0 0 0 0 0 0 0 1 0 0 0 0 0 0 0
5 20 15 3 1 4 1 2 3 0 0 0 0 0 0 2 0 1 0 0 0 0 0 0 5 2 2 0 0 0 0 0
5 100 55 30 5 2 3 0 4 2 1 1 0 0 0 0 0 4 0 1 0 0 0 0 0 0 2 5 4 0 0 0
6 5 4 2 0 1 5 5 7 22 3 3 0 0 0 0 1 0 0 0 0 0 0 4 5 5 5 7 5 3 3 0
5 0 0 0 0 0 5 5 7 5 0 0 0 2 4 4 5 5 3 0 0 3 5 38 95 97 34 77 98 46 5 5
10 4 0 0 5 1 5 65 43 2 0 5 0 1 0 2 0 0 0 0 2 5 5 90 97 18 86 100 99 100 70 22
5 2 4 5 5 4 5 1 5 2 1 1 2 2 0 2 5 4 5 5 5 4 5 14 5 16 52 100 97 100 100 100
4 4 5 5 5 5 5 5 6 4 2 5 5 3 5 5 5 5 5 5 5 0 1 2 96 100 98 100 100 100 100 100
100 5 5 4 5 5 5 5 5 12 13 60 38 5 5 5 5 5 5 5 5 5 4 1 2 17 100 100 100 100 100 100
51 48 11 14 5 5 5 32 99 100 100 76 5 51 66 45 5 5 5 5 5 5 20 54 76 61 100 97 100 100 100 100
100 100 99 81 49 43 87 100 100 98 49 15 5 5 42 12 5 5 5 6 4 5 21 100 100 100 80 88 100 100 100 100
98 100 93 75 60 36 98 52 68 6 5 5 5 19 23 35 15 5 16 70 15 7 7 27 44 13 5 26 86 100 100 100
5 5 5 5 5 6 37 6 5 5 5 5 5 5 5 5 52 62 30 40 51 54 25 37 46 38 58 100 88 100 100 100
28 15 26 60 99 33 23 5 12 9 11 87 100 86 37 5 5 7 27 47 14 37 68 35 52 59 55 97 100 94 100 100
67 88 100 96 90 13 61 89 95 100 100 97 53 0 4 5 5 5 13 44 10 24 47 9 62 76 62 78 99 100 100 100
5 16 19 32 98 100 100 100 100 100 100 13 2 0 4 5 5 5 5 5 5 5 5 9 18 26 65 89 86 100 100 100